| time (UTC) | temp C | wind direction | speed KPH | gust KPH | rain 1hr cm | rain 24hr cm | rain mn cm | humidity % | barometer mb |
| 20260506182315 | 25 | 279 | 0.0 | 0.0 | 0.00 | 0.00 | 0.00 | 68 | 1004.6 |
| 20260506181813 | 25 | 230 | 0.0 | 0.0 | 0.00 | 0.00 | 0.00 | 68 | 1004.6 |
| 20260506181310 | 25 | 245 | 0.0 | 0.0 | 0.00 | 0.00 | 0.00 | 68 | 1004.9 |
| 20260506180808 | 25 | 215 | 0.0 | 0.0 | 0.00 | 0.00 | 0.00 | 69 | 1004.9 |
| 20260506180303 | 25 | 217 | 0.0 | 0.0 | 0.00 | 0.00 | 0.00 | 69 | 1004.9 |
| 20260506175800 | 24 | 258 | 0.0 | 0.0 | 0.00 | 0.00 | 0.00 | 68 | 1004.9 |
| 20260506175257 | 24 | 216 | 0.0 | 0.0 | 0.00 | 0.00 | 0.00 | 69 | 1004.9 |
| 20260506174754 | 23 | 214 | 0.0 | 0.0 | 0.00 | 0.00 | 0.00 | 68 | 1004.9 |
| 20260506174251 | 23 | 273 | 0.0 | 0.0 | 0.00 | 0.00 | 0.00 | 68 | 1004.6 |
| 20260506173749 | 23 | 221 | 0.0 | 0.0 | 0.00 | 0.00 | 0.00 | 69 | 1004.6 |
| 20260506173245 | 22 | 256 | 0.0 | 0.0 | 0.00 | 0.00 | 0.00 | 69 | 1004.9 |
| 20260506172742 | 22 | 203 | 0.0 | 0.0 | 0.00 | 0.00 | 0.00 | 70 | 1004.9 |
| 20260506172239 | 22 | 157 | 0.0 | 0.0 | 0.00 | 0.00 | 0.00 | 71 | 1004.9 |
| 20260506171736 | 21 | 240 | 0.0 | 0.0 | 0.00 | 0.00 | 0.00 | 70 | 1004.9 |
| 20260506171233 | 21 | 254 | 0.0 | 0.0 | 0.00 | 0.00 | 0.00 | 70 | 1004.9 |
| 20260506170731 | 20 | 209 | 0.0 | 0.0 | 0.00 | 0.00 | 0.00 | 73 | 1004.9 |
| 20260506170227 | 20 | 224 | 0.0 | 0.0 | 0.00 | 0.00 | 0.00 | 72 | 1005.2 |
| 20260506165726 | 20 | 219 | 0.0 | 0.0 | 0.00 | 0.00 | 0.00 | 72 | 1004.9 |
| 20260506165222 | 19 | 241 | 0.0 | 0.0 | 0.00 | 0.00 | 0.00 | 71 | 1005.2 |
| 20260506164720 | 19 | 224 | 0.0 | 0.0 | 0.00 | 0.00 | 0.00 | 72 | 1005.2 |
| 20260506164217 | 18 | 324 | 0.0 | 0.0 | 0.00 | 0.00 | 0.00 | 72 | 1005.2 |
| 20260506163713 | 18 | 254 | 0.0 | 0.0 | 0.00 | 0.00 | 0.00 | 72 | 1005.7 |
| 20260506163208 | 18 | 130 | 0.0 | 0.0 | 0.00 | 0.00 | 0.00 | 73 | 1005.7 |
| 20260506162705 | 18 | 236 | 0.0 | 0.0 | 0.00 | 0.00 | 0.00 | 73 | 1006.0 |
| 20260506162202 | 18 | 343 | 0.0 | 4.8 | 0.00 | 0.00 | 0.00 | 72 | 1006.0 |
| 20260506161659 | 18 | 333 | 0.0 | 0.0 | 0.00 | 0.00 | 0.00 | 75 | 1006.0 |
| 20260506161156 | 19 | 252 | 0.0 | 0.0 | 0.00 | 0.00 | 0.00 | 75 | 1006.4 |
| 20260506160654 | 20 | 235 | 0.0 | 0.0 | 0.00 | 0.00 | 0.00 | 75 | 1006.4 |
| 20260506160150 | 20 | 241 | 0.0 | 0.0 | 0.00 | 0.00 | 0.00 | 75 | 1006.7 |
| 20260506155649 | 21 | 258 | 0.0 | 0.0 | 0.00 | 0.00 | 0.00 | 75 | 1006.7 |
| 20260506155146 | 22 | 245 | 0.0 | 0.0 | 0.00 | 0.00 | 0.00 | 74 | 1006.4 |
| 20260506153248 | 24 | 231 | 0.0 | 0.0 | 0.00 | 0.00 | 0.00 | 73 | 1005.2 |
| 20260506152744 | 25 | 272 | 0.0 | 0.0 | 0.00 | 0.00 | 0.00 | 72 | 1004.9 |
| 20260506152242 | 25 | 228 | 0.0 | 0.0 | 0.00 | 0.00 | 0.00 | 72 | 1004.9 |
| 20260506151741 | 25 | 225 | 0.0 | 0.0 | 0.00 | 0.00 | 0.00 | 72 | 1004.6 |
| 20260506151237 | 25 | 201 | 0.0 | 0.0 | 0.00 | 0.00 | 0.00 | 72 | 1004.6 |
| 20260506150733 | 25 | 223 | 0.0 | 0.0 | 0.00 | 0.00 | 0.00 | 71 | 1004.6 |
| 20260506150231 | 24 | 222 | 0.0 | 0.0 | 0.00 | 0.00 | 0.00 | 72 | 1004.2 |
| 20260506145728 | 24 | 224 | 0.0 | 0.0 | 0.00 | 0.00 | 0.00 | 72 | 1004.6 |
| 20260506145224 | 24 | 209 | 0.0 | 0.0 | 0.00 | 0.00 | 0.00 | 71 | 1004.2 |
| 20260506144722 | 24 | 204 | 0.0 | 0.0 | 0.00 | 0.00 | 0.00 | 71 | 1003.9 |
| 20260506144219 | 24 | 189 | 0.0 | 0.0 | 0.00 | 0.00 | 0.00 | 71 | 1003.9 |
| 20260506143716 | 23 | 235 | 0.0 | 0.0 | 0.00 | 0.00 | 0.00 | 71 | 1003.9 |
| 20260506143214 | 23 | 246 | 0.0 | 4.8 | 0.00 | 0.00 | 0.00 | 71 | 1003.9 |
| 20260506142712 | 23 | 221 | 0.0 | 0.0 | 0.00 | 0.00 | 0.00 | 72 | 1003.9 |
| 20260506142210 | 23 | 229 | 0.0 | 0.0 | 0.00 | 0.00 | 0.00 | 72 | 1003.5 |
| 20260506141707 | 23 | 216 | 0.0 | 0.0 | 0.00 | 0.00 | 0.00 | 73 | 1003.2 |
| 20260506141205 | 23 | 222 | 0.0 | 0.0 | 0.00 | 0.00 | 0.00 | 74 | 1003.2 |
| 20260506140703 | 23 | 213 | 0.0 | 0.0 | 0.00 | 0.00 | 0.00 | 74 | 1003.5 |
| 20260506140159 | 23 | 197 | 0.0 | 0.0 | 0.00 | 0.00 | 0.00 | 74 | 1003.5 |
| 20260506135656 | 23 | 228 | 0.0 | 0.0 | 0.00 | 0.00 | 0.00 | 74 | 1003.9 |
| 20260506135153 | 23 | 225 | 0.0 | 0.0 | 0.00 | 0.00 | 0.00 | 74 | 1003.9 |
| 20260506134649 | 23 | 224 | 0.0 | 0.0 | 0.00 | 0.00 | 0.00 | 74 | 1003.5 |
| 20260506134145 | 23 | 224 | 0.0 | 0.0 | 0.00 | 0.00 | 0.00 | 74 | 1003.2 |
| 20260506133643 | 23 | 239 | 0.0 | 0.0 | 0.00 | 0.00 | 0.00 | 74 | 1002.9 |
| 20260506133139 | 23 | 228 | 0.0 | 0.0 | 0.00 | 0.00 | 0.00 | 74 | 1003.2 |
| 20260506132637 | 23 | 231 | 0.0 | 0.0 | 0.00 | 0.00 | 0.00 | 74 | 1002.9 |
| 20260506132133 | 23 | 229 | 0.0 | 0.0 | 0.00 | 0.00 | 0.00 | 74 | 1002.9 |
| 20260506131631 | 23 | 232 | 0.0 | 0.0 | 0.00 | 0.00 | 0.00 | 74 | 1002.9 |
| 20260506131127 | 23 | 197 | 0.0 | 0.0 | 0.00 | 0.00 | 0.00 | 74 | 1002.9 |
| 20260506130624 | 23 | 238 | 0.0 | 0.0 | 0.00 | 0.00 | 0.00 | 74 | 1002.5 |
| 20260506130122 | 22 | 218 | 0.0 | 0.0 | 0.00 | 0.00 | 0.00 | 74 | 1002.9 |
| 20260506125620 | 22 | 217 | 0.0 | 0.0 | 0.00 | 0.00 | 0.00 | 75 | 1002.5 |
| 20260506125117 | 22 | 240 | 0.0 | 0.0 | 0.00 | 0.00 | 0.00 | 75 | 1002.5 |
| 20260506124615 | 22 | 221 | 0.0 | 0.0 | 0.00 | 0.00 | 0.00 | 75 | 1002.5 |
| 20260506124113 | 22 | 187 | 0.0 | 0.0 | 0.00 | 0.00 | 0.00 | 75 | 1002.5 |
| 20260506123610 | 22 | 218 | 0.0 | 0.0 | 0.00 | 0.00 | 0.00 | 75 | 1002.9 |
| 20260506123108 | 22 | 218 | 0.0 | 0.0 | 0.00 | 0.00 | 0.00 | 75 | 1002.9 |
| 20260506122604 | 22 | 222 | 0.0 | 0.0 | 0.00 | 0.00 | 0.00 | 75 | 1002.5 |
| 20260506122103 | 22 | 216 | 0.0 | 0.0 | 0.00 | 0.00 | 0.00 | 75 | 1002.5 |
| 20260506121600 | 22 | 219 | 0.0 | 0.0 | 0.00 | 0.00 | 0.00 | 75 | 1002.5 |
| 20260506121056 | 22 | 217 | 0.0 | 0.0 | 0.00 | 0.00 | 0.00 | 75 | 1002.5 |
| 20260506120554 | 23 | 218 | 0.0 | 0.0 | 0.00 | 0.00 | 0.00 | 75 | 1002.5 |
| 20260506120051 | 23 | 218 | 0.0 | 0.0 | 0.00 | 0.00 | 0.00 | 74 | 1002.5 |
| 20260506115549 | 23 | 218 | 0.0 | 0.0 | 0.00 | 0.00 | 0.00 | 74 | 1002.5 |
| 20260506115048 | 23 | 218 | 0.0 | 0.0 | 0.00 | 0.00 | 0.00 | 74 | 1002.1 |
| 20260506114544 | 23 | 217 | 0.0 | 0.0 | 0.00 | 0.00 | 0.00 | 74 | 1002.5 |
| 20260506114043 | 23 | 230 | 0.0 | 0.0 | 0.00 | 0.00 | 0.00 | 74 | 1002.1 |
| 20260506113540 | 23 | 221 | 0.0 | 0.0 | 0.00 | 0.00 | 0.00 | 74 | 1002.1 |
| 20260506113037 | 23 | 221 | 0.0 | 0.0 | 0.00 | 0.00 | 0.00 | 74 | 1002.1 |
| 20260506112534 | 23 | 221 | 0.0 | 0.0 | 0.00 | 0.00 | 0.00 | 74 | 1002.5 |
| 20260506112031 | 23 | 221 | 0.0 | 0.0 | 0.00 | 0.00 | 0.00 | 74 | 1002.1 |
| 20260506111529 | 23 | 221 | 0.0 | 0.0 | 0.00 | 0.00 | 0.00 | 74 | 1002.5 |
| 20260506111026 | 23 | 221 | 0.0 | 0.0 | 0.00 | 0.00 | 0.00 | 74 | 1002.5 |
| 20260506110524 | 23 | 221 | 0.0 | 0.0 | 0.00 | 0.00 | 0.00 | 74 | 1002.1 |
| 20260506110021 | 23 | 216 | 0.0 | 0.0 | 0.00 | 0.00 | 0.00 | 74 | 1002.1 |
| 20260506105517 | 23 | 216 | 0.0 | 0.0 | 0.00 | 0.00 | 0.00 | 74 | 1002.1 |
| 20260506105014 | 23 | 216 | 0.0 | 0.0 | 0.00 | 0.00 | 0.00 | 74 | 1002.1 |
| 20260506104512 | 23 | 208 | 0.0 | 0.0 | 0.00 | 0.00 | 0.00 | 74 | 1002.1 |
| 20260506104010 | 23 | 200 | 0.0 | 0.0 | 0.00 | 0.00 | 0.00 | 74 | 1001.8 |
| 20260506103507 | 23 | 215 | 0.0 | 0.0 | 0.00 | 0.00 | 0.00 | 74 | 1002.1 |
| 20260506103003 | 23 | 224 | 0.0 | 0.0 | 0.00 | 0.00 | 0.00 | 74 | 1001.8 |
| 20260506102502 | 23 | 228 | 0.0 | 0.0 | 0.00 | 0.00 | 0.00 | 74 | 1001.8 |
| 20260506101959 | 23 | 217 | 0.0 | 0.0 | 0.00 | 0.00 | 0.00 | 74 | 1001.8 |
| 20260506101455 | 23 | 227 | 0.0 | 0.0 | 0.00 | 0.00 | 0.00 | 74 | 1001.8 |
| 20260506100953 | 22 | 212 | 0.0 | 0.0 | 0.00 | 0.00 | 0.00 | 74 | 1001.8 |
| 20260506100451 | 22 | 178 | 0.0 | 0.0 | 0.00 | 0.00 | 0.00 | 74 | 1001.8 |
| 20260506095949 | 22 | 204 | 0.0 | 4.8 | 0.00 | 0.00 | 0.00 | 74 | 1001.4 |
| 20260506095447 | 22 | 169 | 0.0 | 0.0 | 0.00 | 0.00 | 0.00 | 74 | 1001.4 |
| 20260506094942 | 22 | 197 | 0.0 | 0.0 | 0.00 | 0.00 | 0.00 | 74 | 1001.4 |
| 20260506094441 | 22 | 266 | 0.0 | 0.0 | 0.00 | 0.00 | 0.00 | 74 | 1001.4 |
| 20260506093938 | 22 | 220 | 0.0 | 0.0 | 0.00 | 0.00 | 0.00 | 75 | 1001.4 |
| 20260506093437 | 23 | 215 | 0.0 | 0.0 | 0.00 | 0.00 | 0.00 | 75 | 1001.4 |
| 20260506092934 | 23 | 147 | 1.6 | 4.8 | 0.00 | 0.00 | 0.00 | 75 | 1001.4 |
| 20260506092432 | 23 | 216 | 0.0 | 0.0 | 0.00 | 0.00 | 0.00 | 75 | 1001.1 |
| 20260506091928 | 23 | 170 | 0.0 | 4.8 | 0.00 | 0.00 | 0.00 | 75 | 1001.1 |
| 20260506091426 | 23 | 218 | 0.0 | 0.0 | 0.00 | 0.00 | 0.00 | 75 | 1001.1 |
| 20260506090923 | 23 | 232 | 0.0 | 0.0 | 0.00 | 0.00 | 0.00 | 75 | 1001.1 |
| 20260506090421 | 23 | 214 | 0.0 | 0.0 | 0.00 | 0.00 | 0.00 | 75 | 1001.1 |
| 20260506085917 | 23 | 205 | 0.0 | 4.8 | 0.00 | 0.00 | 0.00 | 75 | 1000.7 |
| 20260506085414 | 23 | 217 | 0.0 | 0.0 | 0.00 | 0.00 | 0.00 | 75 | 1000.7 |
| 20260506084910 | 23 | 239 | 0.0 | 0.0 | 0.00 | 0.00 | 0.00 | 75 | 1000.7 |
| 20260506084407 | 23 | 194 | 0.0 | 0.0 | 0.00 | 0.00 | 0.00 | 75 | 1001.1 |
| 20260506083903 | 23 | 232 | 0.0 | 0.0 | 0.00 | 0.00 | 0.00 | 75 | 1000.7 |
| 20260506083401 | 23 | 180 | 1.6 | 4.8 | 0.00 | 0.00 | 0.00 | 75 | 1001.1 |
| 20260506082858 | 23 | 143 | 4.8 | 8.0 | 0.00 | 0.00 | 0.00 | 75 | 1000.7 |
| 20260506082355 | 23 | 196 | 0.0 | 0.0 | 0.00 | 0.00 | 0.00 | 75 | 1001.1 |
| 20260506081851 | 23 | 161 | 4.8 | 8.0 | 0.00 | 0.00 | 0.00 | 75 | 1001.1 |
| 20260506081349 | 23 | 186 | 0.0 | 0.0 | 0.00 | 0.00 | 0.00 | 75 | 1001.1 |
| 20260506080846 | 23 | 245 | 0.0 | 0.0 | 0.00 | 0.00 | 0.00 | 75 | 1001.1 |
| 20260506080343 | 23 | 240 | 0.0 | 0.0 | 0.00 | 0.00 | 0.00 | 75 | 1001.1 |
| 20260506073327 | 23 | 153 | 1.6 | 8.0 | 0.00 | 0.00 | 0.00 | 75 | 1001.4 |
| 20260506072824 | 23 | 182 | 1.6 | 4.8 | 0.00 | 0.00 | 0.00 | 74 | 1001.4 |
| 20260506072321 | 23 | 221 | 0.0 | 0.0 | 0.00 | 0.00 | 0.00 | 74 | 1001.8 |
| 20260506071819 | 23 | 228 | 0.0 | 4.8 | 0.00 | 0.00 | 0.00 | 74 | 1001.4 |
| 20260506071317 | 23 | 211 | 0.0 | 0.0 | 0.00 | 0.00 | 0.00 | 74 | 1001.8 |
| 20260506070814 | 23 | 218 | 0.0 | 4.8 | 0.00 | 0.00 | 0.00 | 74 | 1001.8 |
| 20260506070311 | 23 | 124 | 0.0 | 4.8 | 0.00 | 0.00 | 0.00 | 74 | 1001.8 |
| 20260506062248 | 23 | 212 | 8.0 | 16.1 | 0.00 | 0.00 | 0.00 | 75 | 1001.4 |
| 20260506061744 | 23 | 229 | 0.0 | 0.0 | 0.00 | 0.00 | 0.00 | 75 | 1001.8 |
| 20260506061241 | 23 | 162 | 0.0 | 0.0 | 0.00 | 0.00 | 0.00 | 75 | 1001.8 |
| 20260506060739 | 23 | 200 | 0.0 | 0.0 | 0.00 | 0.00 | 0.00 | 75 | 1001.4 |
| 20260506060237 | 23 | 217 | 0.0 | 0.0 | 0.00 | 0.00 | 0.00 | 75 | 1001.8 |
| 20260506051208 | 23 | 251 | 0.0 | 0.0 | 0.00 | 0.00 | 0.00 | 74 | 1001.4 |
| 20260506050707 | 23 | 220 | 0.0 | 0.0 | 0.00 | 0.00 | 0.00 | 74 | 1001.8 |
| 20260506050203 | 23 | 165 | 3.2 | 8.0 | 0.00 | 0.00 | 0.00 | 74 | 1001.4 |
| 20260506044654 | 23 | 179 | 0.0 | 0.0 | 0.00 | 0.00 | 0.00 | 75 | 1001.8 |
| 20260506044151 | 23 | 191 | 0.0 | 0.0 | 0.00 | 0.00 | 0.00 | 75 | 1001.8 |
| 20260506043648 | 23 | 206 | 0.0 | 0.0 | 0.00 | 0.00 | 0.00 | 75 | 1001.8 |
| 20260506043146 | 23 | 234 | 0.0 | 0.0 | 0.00 | 0.00 | 0.00 | 75 | 1001.8 |
| 20260506042645 | 23 | 212 | 1.6 | 8.0 | 0.00 | 0.00 | 0.00 | 75 | 1001.8 |
| 20260506042143 | 23 | 194 | 0.0 | 0.0 | 0.00 | 0.00 | 0.00 | 75 | 1001.4 |
| 20260506041641 | 23 | 189 | 3.2 | 4.8 | 0.00 | 0.00 | 0.00 | 75 | 1001.4 |
| 20260506041137 | 23 | 209 | 1.6 | 8.0 | 0.00 | 0.00 | 0.00 | 75 | 1001.4 |
| 20260506040635 | 23 | 207 | 0.0 | 0.0 | 0.00 | 0.00 | 0.00 | 75 | 1001.4 |
| 20260506040132 | 23 | 220 | 0.0 | 0.0 | 0.00 | 0.00 | 0.00 | 75 | 1001.4 |
| 20260506035629 | 23 | 226 | 0.0 | 0.0 | 0.00 | 0.00 | 0.00 | 75 | 1001.4 |
| 20260506035125 | 23 | 204 | 0.0 | 0.0 | 0.00 | 0.00 | 0.00 | 75 | 1001.1 |
| 20260506034623 | 24 | 219 | 0.0 | 0.0 | 0.00 | 0.00 | 0.00 | 76 | 1001.1 |
| 20260506034120 | 24 | 197 | 1.6 | 4.8 | 0.00 | 0.00 | 0.00 | 76 | 1001.1 |
| 20260506033617 | 24 | 214 | 0.0 | 0.0 | 0.00 | 0.00 | 0.00 | 76 | 1001.1 |
| 20260506033114 | 24 | 187 | 0.0 | 0.0 | 0.00 | 0.00 | 0.00 | 76 | 1001.1 |
| 20260506032611 | 24 | 270 | 0.0 | 0.0 | 0.00 | 0.00 | 0.00 | 76 | 1001.1 |
| 20260506032108 | 24 | 188 | 0.0 | 4.8 | 0.00 | 0.00 | 0.00 | 76 | 1001.1 |
| 20260506031605 | 24 | 256 | 0.0 | 0.0 | 0.00 | 0.00 | 0.00 | 77 | 1000.7 |
| 20260506031102 | 24 | 196 | 1.6 | 4.8 | 0.00 | 0.00 | 0.00 | 77 | 1000.7 |
| 20260506030600 | 24 | 208 | 0.0 | 0.0 | 0.00 | 0.00 | 0.00 | 76 | 1000.7 |
| 20260506030057 | 24 | 186 | 0.0 | 0.0 | 0.00 | 0.00 | 0.00 | 77 | 1000.7 |
| 20260506025554 | 25 | 210 | 0.0 | 0.0 | 0.00 | 0.00 | 0.00 | 76 | 1000.7 |
| 20260506025050 | 25 | 168 | 0.0 | 4.8 | 0.00 | 0.00 | 0.00 | 76 | 1000.7 |
| 20260506024547 | 25 | 227 | 0.0 | 0.0 | 0.00 | 0.00 | 0.00 | 76 | 1000.7 |
| 20260506024044 | 25 | 223 | 0.0 | 0.0 | 0.00 | 0.00 | 0.00 | 76 | 1000.7 |
| 20260506023539 | 25 | 197 | 0.0 | 0.0 | 0.00 | 0.00 | 0.00 | 76 | 1000.4 |
| 20260506023037 | 25 | 229 | 0.0 | 0.0 | 0.00 | 0.00 | 0.00 | 76 | 1000.1 |
| 20260506022535 | 25 | 177 | 0.0 | 4.8 | 0.00 | 0.00 | 0.00 | 76 | 1000.1 |
| 20260506022032 | 25 | 218 | 0.0 | 0.0 | 0.00 | 0.00 | 0.00 | 76 | 1000.1 |
| 20260506021529 | 25 | 228 | 0.0 | 0.0 | 0.00 | 0.00 | 0.00 | 76 | 1000.1 |
| 20260506021027 | 25 | 206 | 0.0 | 0.0 | 0.00 | 0.00 | 0.00 | 76 | 1000.1 |
| 20260506020524 | 25 | 219 | 0.0 | 0.0 | 0.00 | 0.00 | 0.00 | 75 | 999.7 |
| 20260506020021 | 25 | 219 | 0.0 | 0.0 | 0.00 | 0.00 | 0.00 | 75 | 999.7 |
| 20260506015519 | 25 | 205 | 0.0 | 0.0 | 0.00 | 0.00 | 0.00 | 75 | 999.7 |
| 20260506015015 | 25 | 215 | 0.0 | 0.0 | 0.00 | 0.00 | 0.00 | 75 | 999.7 |
| 20260506014513 | 25 | 182 | 0.0 | 0.0 | 0.00 | 0.00 | 0.00 | 75 | 999.7 |
| 20260506014009 | 25 | 209 | 0.0 | 0.0 | 0.00 | 0.00 | 0.00 | 75 | 999.4 |
| 20260506013507 | 26 | 227 | 0.0 | 0.0 | 0.00 | 0.00 | 0.00 | 74 | 999.4 |
| 20260506013003 | 26 | 218 | 0.0 | 0.0 | 0.00 | 0.00 | 0.00 | 74 | 999.7 |
| 20260506012459 | 26 | 233 | 0.0 | 0.0 | 0.00 | 0.00 | 0.00 | 73 | 999.4 |
| 20260506011956 | 26 | 217 | 0.0 | 0.0 | 0.00 | 0.00 | 0.00 | 73 | 999.4 |
| 20260506011454 | 26 | 217 | 0.0 | 0.0 | 0.00 | 0.00 | 0.00 | 72 | 999.4 |
| 20260506010950 | 26 | 191 | 0.0 | 0.0 | 0.00 | 0.00 | 0.00 | 72 | 999.7 |
| 20260506010449 | 26 | 218 | 0.0 | 0.0 | 0.00 | 0.00 | 0.00 | 72 | 999.7 |
| 20260506005945 | 27 | 211 | 0.0 | 0.0 | 0.00 | 0.00 | 0.00 | 71 | 999.7 |
| 20260506005443 | 27 | 181 | 0.0 | 0.0 | 0.00 | 0.00 | 0.00 | 71 | 999.7 |
| 20260506004938 | 27 | 184 | 0.0 | 0.0 | 0.00 | 0.00 | 0.00 | 70 | 999.7 |
| 20260506004437 | 27 | 218 | 0.0 | 0.0 | 0.00 | 0.00 | 0.00 | 70 | 999.7 |
| 20260506003932 | 27 | 218 | 0.0 | 0.0 | 0.00 | 0.00 | 0.00 | 69 | 999.7 |
| 20260506003429 | 27 | 225 | 0.0 | 0.0 | 0.00 | 0.00 | 0.00 | 69 | 999.7 |
| 20260506002925 | 27 | 184 | 0.0 | 0.0 | 0.00 | 0.00 | 0.00 | 69 | 1000.1 |
| 20260506002421 | 27 | 211 | 0.0 | 0.0 | 0.00 | 0.00 | 0.00 | 68 | 999.7 |
| 20260506001917 | 27 | 192 | 1.6 | 4.8 | 0.00 | 0.00 | 0.00 | 68 | 999.4 |
| 20260506001414 | 27 | 166 | 0.0 | 4.8 | 0.00 | 0.00 | 0.00 | 67 | 999.7 |
| 20260506000911 | 27 | 204 | 0.0 | 0.0 | 0.00 | 0.00 | 0.00 | 67 | 999.7 |
| 20260506000409 | 27 | 221 | 0.0 | 0.0 | 0.00 | 0.00 | 0.00 | 67 | 999.7 |
| 20260505235905 | 27 | 225 | 0.0 | 0.0 | 0.00 | 0.00 | 0.00 | 67 | 999.4 |
| 20260505235404 | 27 | 229 | 0.0 | 0.0 | 0.00 | 0.00 | 0.00 | 67 | 999.7 |
| 20260505234900 | 27 | 227 | 0.0 | 0.0 | 0.00 | 0.00 | 0.00 | 67 | 999.4 |
| 20260505234358 | 27 | 219 | 0.0 | 0.0 | 0.00 | 0.00 | 0.00 | 67 | 999.4 |
| 20260505233854 | 27 | 220 | 0.0 | 0.0 | 0.00 | 0.00 | 0.00 | 67 | 999.4 |
| 20260505233352 | 27 | 212 | 0.0 | 4.8 | 0.00 | 0.00 | 0.00 | 66 | 998.9 |
| 20260505232849 | 27 | 187 | 0.0 | 0.0 | 0.00 | 0.00 | 0.00 | 66 | 998.9 |
| 20260505232347 | 27 | 311 | 0.0 | 0.0 | 0.00 | 0.00 | 0.00 | 66 | 999.4 |
| 20260505231843 | 27 | 168 | 0.0 | 0.0 | 0.00 | 0.00 | 0.00 | 67 | 999.4 |
| 20260505231341 | 28 | 274 | 0.0 | 0.0 | 0.00 | 0.00 | 0.00 | 66 | 999.4 |
| 20260505230839 | 28 | 209 | 0.0 | 4.8 | 0.00 | 0.00 | 0.00 | 66 | 999.4 |
| 20260505230336 | 28 | 221 | 0.0 | 0.0 | 0.00 | 0.00 | 0.00 | 66 | 999.7 |
| 20260505225832 | 28 | 165 | 0.0 | 0.0 | 0.00 | 0.00 | 0.00 | 66 | 999.4 |
| 20260505225330 | 28 | 166 | 1.6 | 4.8 | 0.00 | 0.00 | 0.00 | 66 | 999.4 |
| 20260505224825 | 28 | 270 | 0.0 | 4.8 | 0.00 | 0.00 | 0.00 | 65 | 999.4 |
| 20260505224323 | 28 | 122 | 3.2 | 8.0 | 0.00 | 0.00 | 0.00 | 65 | 999.4 |
| 20260505223820 | 28 | 224 | 0.0 | 0.0 | 0.00 | 0.00 | 0.00 | 65 | 999.4 |
| 20260505223317 | 28 | 184 | 1.6 | 4.8 | 0.00 | 0.00 | 0.00 | 65 | 999.4 |
| 20260505222813 | 28 | 187 | 0.0 | 0.0 | 0.00 | 0.00 | 0.00 | 65 | 999.4 |
| 20260505222309 | 28 | 215 | 0.0 | 0.0 | 0.00 | 0.00 | 0.00 | 65 | 999.4 |
| 20260505221806 | 28 | 161 | 0.0 | 0.0 | 0.00 | 0.00 | 0.00 | 65 | 999.4 |
| 20260505221303 | 28 | 187 | 4.8 | 8.0 | 0.00 | 0.00 | 0.00 | 64 | 999.4 |
| 20260505220800 | 28 | 215 | 0.0 | 0.0 | 0.00 | 0.00 | 0.00 | 65 | 998.9 |
| 20260505220257 | 29 | 180 | 1.6 | 8.0 | 0.00 | 0.00 | 0.00 | 64 | 998.9 |
| 20260505215755 | 29 | 176 | 6.4 | 11.3 | 0.00 | 0.00 | 0.00 | 64 | 999.4 |
| 20260505215253 | 29 | 211 | 0.0 | 0.0 | 0.00 | 0.00 | 0.00 | 63 | 999.4 |
| 20260505214750 | 29 | 242 | 1.6 | 4.8 | 0.00 | 0.00 | 0.00 | 62 | 999.4 |
| 20260505214247 | 29 | 193 | 1.6 | 4.8 | 0.00 | 0.00 | 0.00 | 62 | 999.4 |
| 20260505213744 | 29 | 216 | 0.0 | 0.0 | 0.00 | 0.00 | 0.00 | 63 | 999.7 |
| 20260505213242 | 29 | 236 | 0.0 | 0.0 | 0.00 | 0.00 | 0.00 | 63 | 999.7 |
| 20260505212737 | 28 | 175 | 1.6 | 4.8 | 0.00 | 0.00 | 0.00 | 62 | 999.7 |
| 20260505212235 | 28 | 157 | 9.7 | 16.1 | 0.00 | 0.00 | 0.00 | 63 | 1000.1 |
| 20260505211732 | 28 | 165 | 0.0 | 4.8 | 0.00 | 0.00 | 0.00 | 63 | 999.7 |
| 20260505211229 | 28 | 267 | 0.0 | 0.0 | 0.00 | 0.00 | 0.00 | 63 | 999.7 |
| 20260505210726 | 28 | 180 | 1.6 | 4.8 | 0.00 | 0.00 | 0.00 | 63 | 999.7 |
| 20260505210222 | 29 | 246 | 0.0 | 0.0 | 0.00 | 0.00 | 0.00 | 62 | 1000.1 |
| 20260505205720 | 29 | 213 | 8.0 | 11.3 | 0.00 | 0.00 | 0.00 | 62 | 1000.1 |
| 20260505205218 | 29 | 218 | 0.0 | 0.0 | 0.00 | 0.00 | 0.00 | 63 | 999.7 |
| 20260505204714 | 29 | 223 | 0.0 | 0.0 | 0.00 | 0.00 | 0.00 | 63 | 1000.1 |
| 20260505204212 | 29 | 234 | 0.0 | 0.0 | 0.00 | 0.00 | 0.00 | 63 | 1000.1 |
| 20260505203709 | 29 | 309 | 4.8 | 8.0 | 0.00 | 0.00 | 0.00 | 61 | 1000.1 |
| 20260505203206 | 29 | 173 | 0.0 | 4.8 | 0.00 | 0.00 | 0.00 | 62 | 1000.4 |
| 20260505202702 | 29 | 191 | 1.6 | 8.0 | 0.00 | 0.00 | 0.00 | 62 | 1000.7 |
| 20260505202158 | 29 | 254 | 1.6 | 4.8 | 0.00 | 0.00 | 0.00 | 62 | 1000.4 |
| 20260505201654 | 29 | 226 | 0.0 | 0.0 | 0.00 | 0.00 | 0.00 | 63 | 1000.7 |
| 20260505201153 | 28 | 265 | 1.6 | 8.0 | 0.00 | 0.00 | 0.00 | 61 | 1000.7 |
| 20260505200651 | 28 | 180 | 0.0 | 0.0 | 0.00 | 0.00 | 0.00 | 63 | 1000.7 |
| 20260505200147 | 28 | 228 | 0.0 | 4.8 | 0.00 | 0.00 | 0.00 | 63 | 1000.7 |
| 20260505195643 | 28 | 251 | 0.0 | 0.0 | 0.00 | 0.00 | 0.00 | 62 | 1000.7 |
| 20260505195140 | 28 | 176 | 1.6 | 4.8 | 0.00 | 0.00 | 0.00 | 64 | 1000.7 |
| 20260505194638 | 28 | 216 | 0.0 | 0.0 | 0.00 | 0.00 | 0.00 | 64 | 1000.7 |
| 20260505194133 | 28 | 206 | 1.6 | 4.8 | 0.00 | 0.00 | 0.00 | 64 | 1000.7 |
| 20260505193630 | 28 | 169 | 0.0 | 4.8 | 0.00 | 0.00 | 0.00 | 64 | 1001.1 |
| 20260505193127 | 28 | 236 | 0.0 | 0.0 | 0.00 | 0.00 | 0.00 | 64 | 1001.1 |
| 20260505192626 | 28 | 203 | 0.0 | 0.0 | 0.00 | 0.00 | 0.00 | 64 | 1001.1 |
| 20260505192123 | 28 | 150 | 1.6 | 4.8 | 0.00 | 0.00 | 0.00 | 64 | 1001.1 |
| 20260505191622 | 28 | 219 | 4.8 | 8.0 | 0.00 | 0.00 | 0.00 | 64 | 1001.1 |
| 20260505191119 | 27 | 195 | 0.0 | 0.0 | 0.00 | 0.00 | 0.00 | 64 | 1001.1 |
| 20260505190614 | 27 | 230 | 0.0 | 0.0 | 0.00 | 0.00 | 0.00 | 65 | 1001.4 |
| 20260505190109 | 27 | 223 | 0.0 | 0.0 | 0.00 | 0.00 | 0.00 | 65 | 1000.7 |
| 20260505185607 | 27 | 180 | 1.6 | 4.8 | 0.00 | 0.00 | 0.00 | 66 | 1001.1 |
| 20260505185103 | 26 | 174 | 0.0 | 4.8 | 0.00 | 0.00 | 0.00 | 67 | 1001.4 |
| 20260505184559 | 26 | 268 | 0.0 | 0.0 | 0.00 | 0.00 | 0.00 | 68 | 1001.4 |
| 20260505184056 | 26 | 211 | 1.6 | 4.8 | 0.00 | 0.00 | 0.00 | 67 | 1001.4 |
| 20260505183553 | 26 | 247 | 0.0 | 0.0 | 0.00 | 0.00 | 0.00 | 68 | 1001.4 |
| 20260505183051 | 25 | 236 | 0.0 | 0.0 | 0.00 | 0.00 | 0.00 | 69 | 1001.8 |